Location: Kernascl�den
(48.0062°N, 3.3198°W)
Time: 22:11:28
(UTC+00:00)

CZ-4 R/B - Pass Details

Date: 21 January 2021
Orbit: 531 x 599 km, 97.7° (Epoch: 03 March)

Event Time Altitude Azimuth Distance (km) Brightness Sun altitude
Rises 19:26:46 0° 191° (S) 2,798 5.1 -24.8°
Reaches altitude 10° 19:29:08 10° 202° (SSW) 1,893 4.3 -25.2°
Maximum altitude 19:32:46 30° 264° (W) 1,047 3.3 -25.8°
Drops below altitude 10° 19:36:21 10° 326° (NNW) 1,871 4.4 -26.4°
Sets 19:38:41 0° 338° (NNW) 2,760 5.2 -26.8°
